Tracking 19847 objects as of 17-Sep-2019
HD Live streaming from Space Station
objects crossing your sky now

NOAA 16 DEB

Track NOAA 16 DEB now!
10-day predictions


NORAD ID: 41356
Int'l Code: 2000-055HZ
Perigee: 844.6 km
Apogee: 908.6 km
Inclination: 98.9 °
Period: 102.3 minutes
Semi major axis: 7247 km
RCS: Unknown
Launch date: September 21, 2000
Source: United States (US)
Launch site: AIR FORCE WESTERN TEST RANGE (AFWTR)

Note: This is SATELLITE DEBRIS
aabbcc
Your satellite tracking list
Your tracking list is empty




NASA's NSSDC Master Catalog

Two Line Element Set (TLE):
1 41356U 00055HZ  19257.97313285  .00000643  00000-0  40736-3 0  9997
2 41356  98.8631 320.4958 0044177 296.0475  63.6149 14.07065153189103
Source of the keplerian elements: AFSPC